Weather History for Ft Pierce, FL

Change the Weather History Date:

Tuesday, April 2, 2013

  Actual Average Record
Temperature  
Mean Temperature 70 °F -  
Max Temperature 81 °F 80 °F 93 °F (1948)
Min Temperature 59 °F 60 °F 39 °F (1987)
Cooling Degree Days 5    
Growing Degree Days 20 (Base 50)    
Moisture  
Dew Point 62 °F    
Average Humidity 80    
Maximum Humidity 100    
Minimum Humidity 44    
Precipitation  
Precipitation 0.00 in - - ()
Sea Level Pressure  
Sea Level Pressure 30.05 in    
Wind  
Wind Speed 4 mph (NNW)    
Max Wind Speed 10 mph    
Max Gust Speed -    
Visibility 7 miles    
Events      
Averages and records for this station are not official NWS values.
T = Trace of Precipitation, MM = Missing Value Source: NWS Daily Summary

Daily Weather History Graph

Daily Weather History Graph

Search for Another Location

Airport:

Trip Planner

Search our weather history database for the weather conditions in past years. The results will help you decide how hot, cold, wet, or windy it might be!

Date:

Astronomy

Apr. 02, 2013 Rise Set
Actual Time 7:10 AM EDT 7:39 PM EDT
Civil Twilight 6:47 AM EDT 8:03 PM EDT
Nautical Twilight 6:19 AM EDT 8:30 PM EDT
Astronomical Twilight 5:51 AM EDT 8:58 PM EDT
Moon 1:21 AM EDT (4/2) 12:20 PM EDT (4/2)
Length of Visible Light 13h 16m
Length of Day
12h 29m
Waning Gibbous, 56% of the Moon is Illuminated
Apr 2
Waning Gibbous
Apr 3
Last Quarter
Apr 10
New
Apr 18
First Quarter
Apr 25
Full

Hourly Weather History & Observations

Time (EDT) Temp. Heat Index Dew Point Humidity Pressure Visibility Wind Dir Wind Speed Gust Speed Precip Events Conditions
12:53 AM 64.0 °F - 59.0 °F 84% 30.02 in 10.0 mi Calm Calm - N/A   Clear
1:53 AM 62.1 °F - 57.9 °F 86% 30.01 in 8.0 mi West 4.6 mph - N/A   Clear
2:53 AM 64.0 °F - 61.0 °F 90% 30.01 in 8.0 mi WNW 5.8 mph - N/A   Clear
3:53 AM 63.0 °F - 61.0 °F 93% 30.00 in 5.0 mi West 4.6 mph - N/A   Clear
4:53 AM 63.0 °F - 61.0 °F 93% 30.00 in 3.0 mi WNW 4.6 mph - N/A   Clear
5:06 AM 60.8 °F - 60.8 °F 100% 30.00 in 2.5 mi WNW 4.6 mph - N/A   Clear
5:29 AM 62.6 °F - 60.8 °F 94% 30.01 in 3.0 mi WNW 5.8 mph - N/A   Clear
5:53 AM 62.1 °F - 60.1 °F 93% 30.01 in 3.0 mi WNW 4.6 mph - N/A   Clear
6:28 AM 60.8 °F - 60.8 °F 100% 30.02 in 2.5 mi WNW 3.5 mph - N/A   Clear
6:53 AM 60.1 °F - 59.0 °F 96% 30.03 in 1.8 mi WNW 3.5 mph - N/A   Clear
7:03 AM 59.0 °F - 57.2 °F 94% 30.03 in 1.8 mi Calm Calm - N/A   Partly Cloudy
7:30 AM 59.0 °F - 59.0 °F 100% 30.04 in 3.0 mi WNW 3.5 mph - N/A   Clear
7:53 AM 62.1 °F - 61.0 °F 96% 30.05 in 3.0 mi WNW 3.5 mph - N/A   Clear
8:53 AM 69.1 °F - 64.0 °F 84% 30.07 in 7.0 mi WNW 5.8 mph - N/A   Clear
9:53 AM 73.9 °F - 60.1 °F 62% 30.09 in 10.0 mi NNW 6.9 mph - N/A   Clear
10:53 AM 79.0 °F - 59.0 °F 50% 30.09 in 10.0 mi Variable 4.6 mph - N/A   Clear
11:53 AM 81.0 °F 81.0 °F 57.0 °F 44% 30.09 in 10.0 mi NNE 8.1 mph - N/A   Clear
12:53 PM 79.0 °F - 57.9 °F 48% 30.08 in 10.0 mi NE 8.1 mph - N/A   Clear
1:53 PM 79.0 °F - 61.0 °F 54% 30.07 in 10.0 mi ENE 10.4 mph - N/A   Scattered Clouds
2:53 PM 78.1 °F - 63.0 °F 60% 30.06 in 10.0 mi ENE 9.2 mph - N/A   Clear
3:53 PM 77.0 °F - 64.9 °F 66% 30.05 in 10.0 mi ENE 9.2 mph - N/A   Clear
4:53 PM 77.0 °F - 66.0 °F 69% 30.04 in 10.0 mi Variable 5.8 mph - N/A   Clear
5:53 PM 75.0 °F - 66.0 °F 73% 30.05 in 10.0 mi ENE 6.9 mph - N/A   Clear
6:53 PM 75.0 °F - 66.9 °F 76% 30.05 in 10.0 mi NE 4.6 mph - N/A   Clear
7:53 PM 71.1 °F - 66.0 °F 84% 30.05 in 10.0 mi Calm Calm - N/A   Clear
8:53 PM 69.1 °F - 66.0 °F 90% 30.06 in 9.0 mi Calm Calm - N/A   Clear
9:53 PM 69.1 °F - 66.0 °F 90% 30.08 in 9.0 mi NE 3.5 mph - N/A   Clear
10:53 PM 72.0 °F - 66.0 °F 81% 30.09 in 10.0 mi East 4.6 mph - N/A   Clear
11:53 PM 71.1 °F - 64.9 °F 81% 30.09 in 10.0 mi East 5.8 mph - N/A   Clear